Time,TemperatureF,DewpointF,PressureIn,WindDirection,WindDirectionDegrees,WindSpeedMPH,WindSpeedGustMPH,Humidity,HourlyPrecipIn,Conditions,Clouds,dailyrainin,SolarRadiationWatts/m^2,SoftwareType,DateUTC
2013-07-21 00:05:00,78.6,60.6,29.94,NE,53,0.0,0.0,54,0.00,,,0.00,0,Wunderground v.1.15,2013-07-20 22:05:00,
2013-07-21 00:15:00,78.3,60.8,29.94,NE,53,1.0,1.0,55,0.00,,,0.00,0,Wunderground v.1.15,2013-07-20 22:15:00,
2013-07-21 00:26:00,77.9,60.9,29.94,NE,53,1.0,1.0,56,0.00,,,0.00,0,Wunderground v.1.15,2013-07-20 22:26:00,
2013-07-21 00:40:00,77.3,61.4,29.95,NE,53,1.0,1.0,58,0.00,,,0.00,0,Wunderground v.1.15,2013-07-20 22:40:00,
2013-07-21 00:51:00,76.9,62.9,29.95,NE,53,1.0,1.0,62,0.00,,,0.00,0,Wunderground v.1.15,2013-07-20 22:51:00,
2013-07-21 01:05:00,76.0,61.6,29.94,NE,49,2.0,2.0,61,0.00,,,0.00,0,Wunderground v.1.15,2013-07-20 23:05:00,
2013-07-21 01:15:00,75.1,60.3,29.94,NE,40,2.0,2.0,60,0.00,,,0.00,0,Wunderground v.1.15,2013-07-20 23:15:00,
2013-07-21 01:30:00,74.6,59.3,29.94,WNW,294,1.0,1.0,59,0.00,,,0.00,0,Wunderground v.1.15,2013-07-20 23:30:00,
2013-07-21 01:40:00,74.4,58.7,29.94,WNW,294,0.0,2.0,58,0.00,,,0.00,0,Wunderground v.1.15,2013-07-20 23:40:00,
2013-07-21 01:50:00,74.3,58.6,29.94,WNW,294,1.0,1.0,58,0.00,,,0.00,0,Wunderground v.1.15,2013-07-20 23:50:00,
2013-07-21 01:55:00,74.5,60.2,29.93,WNW,294,0.0,1.0,61,0.00,,,0.00,0,Wunderground v.1.15,2013-07-20 23:55:00,
2013-07-21 02:05:00,74.5,59.7,29.93,WNW,294,0.0,0.0,60,0.00,,,0.00,0,Wunderground v.1.15,2013-07-21 00:05:00,
2013-07-21 02:20:00,74.1,58.4,29.93,WNW,294,0.0,0.0,58,0.00,,,0.00,0,Wunderground v.1.15,2013-07-21 00:20:00,
2013-07-21 02:30:00,74.0,56.8,29.93,WNW,294,0.0,1.0,55,0.00,,,0.00,0,Wunderground v.1.15,2013-07-21 00:30:00,
2013-07-21 02:45:00,73.6,56.4,29.93,West,268,0.0,0.0,55,0.00,,,0.00,0,Wunderground v.1.15,2013-07-21 00:45:00,
2013-07-21 02:55:00,73.3,55.1,29.93,West,268,0.0,2.0,53,0.00,,,0.00,0,Wunderground v.1.15,2013-07-21 00:55:00,
2013-07-21 03:10:00,73.1,54.4,29.93,West,268,2.0,2.0,52,0.00,,,0.00,0,Wunderground v.1.15,2013-07-21 01:10:00,
2013-07-21 03:35:00,73.1,53.9,29.92,West,268,1.0,1.0,51,0.00,,,0.00,0,Wunderground v.1.15,2013-07-21 01:35:00,
2013-07-21 03:46:00,73.1,55.5,29.92,West,268,0.0,0.0,54,0.00,,,0.00,0,Wunderground v.1.15,2013-07-21 01:46:00,
2013-07-21 04:05:00,72.3,53.2,29.92,West,268,2.0,2.0,51,0.00,,,0.00,0,Wunderground v.1.15,2013-07-21 02:05:00,
2013-07-21 04:15:00,72.1,52.4,29.92,West,268,2.0,2.0,50,0.00,,,0.00,0,Wunderground v.1.15,2013-07-21 02:15:00,
2013-07-21 04:30:00,72.5,52.8,29.92,West,268,1.0,1.0,50,0.00,,,0.00,0,Wunderground v.1.15,2013-07-21 02:30:00,
2013-07-21 04:40:00,72.6,53.4,29.92,West,268,0.0,0.0,51,0.00,,,0.00,0,Wunderground v.1.15,2013-07-21 02:40:00,
2013-07-21 04:50:00,72.6,53.4,29.92,West,268,0.0,1.0,51,0.00,,,0.00,0,Wunderground v.1.15,2013-07-21 02:50:00,
2013-07-21 05:10:00,72.1,53.0,29.92,West,268,1.0,2.0,51,0.00,,,0.00,0,Wunderground v.1.15,2013-07-21 03:10:00,
2013-07-21 05:16:00,72.1,53.0,29.92,West,268,1.0,1.0,51,0.00,,,0.00,0,Wunderground v.1.15,2013-07-21 03:16:00,
2013-07-21 05:30:00,71.8,53.2,29.92,West,268,0.0,0.0,52,0.00,,,0.00,0,Wunderground v.1.15,2013-07-21 03:30:00,
2013-07-21 05:40:00,71.4,53.4,29.92,West,268,1.0,1.0,53,0.00,,,0.00,0,Wunderground v.1.15,2013-07-21 03:40:00,
2013-07-21 05:50:00,71.0,53.5,29.92,West,268,1.0,3.0,54,0.00,,,0.00,0,Wunderground v.1.15,2013-07-21 03:50:00,
2013-07-21 06:05:00,71.0,54.0,29.93,West,268,1.0,2.0,55,0.00,,,0.00,0,Wunderground v.1.15,2013-07-21 04:05:00,
2013-07-21 06:10:00,71.2,54.2,29.92,West,268,2.0,2.0,55,0.00,,,0.00,0,Wunderground v.1.15,2013-07-21 04:10:00,
2013-07-21 06:21:00,71.4,53.9,29.92,West,268,2.0,2.0,54,0.00,,,0.00,0,Wunderground v.1.15,2013-07-21 04:21:00,
2013-07-21 06:35:00,71.3,54.3,29.92,West,268,0.0,0.0,55,0.00,,,0.00,0,Wunderground v.1.15,2013-07-21 04:35:00,
2013-07-21 06:40:00,71.2,54.2,29.92,West,268,0.0,0.0,55,0.00,,,0.00,0,Wunderground v.1.15,2013-07-21 04:40:00,
2013-07-21 06:45:00,71.1,54.6,29.92,West,268,1.0,1.0,56,0.00,,,0.00,7,Wunderground v.1.15,2013-07-21 04:45:00,
2013-07-21 06:56:00,70.7,54.2,29.93,West,268,0.0,0.0,56,0.00,,,0.00,14,Wunderground v.1.15,2013-07-21 04:56:00,
2013-07-21 07:05:00,70.5,54.5,29.93,West,268,1.0,2.0,57,0.00,,,0.00,30,Wunderground v.1.15,2013-07-21 05:05:00,
2013-07-21 07:10:00,70.4,54.9,29.93,West,268,1.0,2.0,58,0.00,,,0.00,46,Wunderground v.1.15,2013-07-21 05:10:00,
2013-07-21 07:20:00,70.8,57.1,29.93,West,268,2.0,2.0,62,0.00,,,0.00,72,Wunderground v.1.15,2013-07-21 05:20:00,
2013-07-21 07:30:00,71.3,56.2,29.93,West,268,1.0,1.0,59,0.00,,,0.00,98,Wunderground v.1.15,2013-07-21 05:30:00,
2013-07-21 07:40:00,71.9,57.3,29.93,West,268,0.0,0.0,60,0.00,,,0.00,123,Wunderground v.1.15,2013-07-21 05:40:00,
2013-07-21 07:50:00,72.6,57.9,29.94,West,268,0.0,0.0,60,0.00,,,0.00,149,Wunderground v.1.15,2013-07-21 05:50:00,
2013-07-21 08:05:00,73.7,57.5,29.94,West,268,0.0,0.0,57,0.00,,,0.00,192,Wunderground v.1.15,2013-07-21 06:05:00,
2013-07-21 08:20:00,75.5,57.2,29.95,West,268,1.0,2.0,53,0.00,,,0.00,234,Wunderground v.1.15,2013-07-21 06:20:00,
2013-07-21 08:30:00,76.6,57.1,29.95,West,268,1.0,1.0,51,0.00,,,0.00,264,Wunderground v.1.15,2013-07-21 06:30:00,
2013-07-21 08:40:00,77.8,57.7,29.95,West,268,1.0,1.0,50,0.00,,,0.00,294,Wunderground v.1.15,2013-07-21 06:40:00,
2013-07-21 08:55:00,80.0,58.0,29.96,West,268,1.0,1.0,47,0.00,,,0.00,341,Wunderground v.1.15,2013-07-21 06:55:00,
2013-07-21 09:05:00,81.6,59.4,29.97,West,268,1.0,1.0,47,0.00,,,0.00,371,Wunderground v.1.15,2013-07-21 07:05:00,
2013-07-21 09:15:00,82.8,62.3,29.97,ESE,113,2.0,3.0,50,0.00,,,0.00,406,Wunderground v.1.15,2013-07-21 07:15:00,
2013-07-21 09:26:00,83.0,58.8,29.97,ESE,118,2.0,4.0,44,0.00,,,0.00,434,Wunderground v.1.15,2013-07-21 07:26:00,
2013-07-21 09:40:00,83.8,57.6,29.97,ENE,76,2.0,2.0,41,0.00,,,0.00,482,Wunderground v.1.15,2013-07-21 07:40:00,
2013-07-21 09:50:00,84.1,58.5,29.96,NE,43,3.0,3.0,42,0.00,,,0.00,513,Wunderground v.1.15,2013-07-21 07:50:00,
2013-07-21 10:05:00,85.0,59.3,29.95,NE,55,3.0,3.0,42,0.00,,,0.00,559,Wunderground v.1.15,2013-07-21 08:05:00,
2013-07-21 10:15:00,85.6,57.8,29.95,ENE,70,3.0,4.0,39,0.00,,,0.00,591,Wunderground v.1.15,2013-07-21 08:15:00,
2013-07-21 10:25:00,86.2,57.6,29.93,ESE,105,3.0,3.0,38,0.00,,,0.00,621,Wunderground v.1.15,2013-07-21 08:25:00,
2013-07-21 10:35:00,86.7,57.3,29.93,ESE,111,4.0,5.0,37,0.00,,,0.00,649,Wunderground v.1.15,2013-07-21 08:35:00,
2013-07-21 10:45:00,87.1,57.7,29.93,ENE,61,4.0,4.0,37,0.00,,,0.00,675,Wunderground v.1.15,2013-07-21 08:45:00,
2013-07-21 10:55:00,87.7,56.7,29.93,ENE,67,4.0,4.0,35,0.00,,,0.00,703,Wunderground v.1.15,2013-07-21 08:55:00,
2013-07-21 11:10:00,89.1,60.2,29.94,ESE,104,3.0,3.0,38,0.00,,,0.00,735,Wunderground v.1.15,2013-07-21 09:10:00,
2013-07-21 11:16:00,89.0,61.5,29.94,ESE,102,5.0,5.0,40,0.00,,,0.00,747,Wunderground v.1.15,2013-07-21 09:16:00,
2013-07-21 11:26:00,88.6,60.5,29.94,ENE,57,5.0,7.0,39,0.00,,,0.00,768,Wunderground v.1.15,2013-07-21 09:26:00,
2013-07-21 11:40:00,88.5,63.1,29.94,ESE,119,5.0,7.0,43,0.00,,,0.00,796,Wunderground v.1.15,2013-07-21 09:40:00,
2013-07-21 11:51:00,88.3,61.6,29.95,ENE,74,6.0,7.0,41,0.00,,,0.00,816,Wunderground v.1.15,2013-07-21 09:51:00,
2013-07-21 12:05:00,88.4,60.3,29.95,ESE,121,6.0,6.0,39,0.00,,,0.00,819,Wunderground v.1.15,2013-07-21 10:05:00,
2013-07-21 12:16:00,88.3,61.6,29.95,ESE,110,6.0,6.0,41,0.00,,,0.00,854,Wunderground v.1.15,2013-07-21 10:16:00,
2013-07-21 12:25:00,88.8,60.7,29.95,ENE,58,4.0,6.0,39,0.00,,,0.00,865,Wunderground v.1.15,2013-07-21 10:25:00,
2013-07-21 12:31:00,88.7,59.8,29.95,ENE,75,5.0,5.0,38,0.00,,,0.00,846,Wunderground v.1.15,2013-07-21 10:31:00,
2013-07-21 12:40:00,88.8,59.9,29.95,ENE,69,5.0,10.0,38,0.00,,,0.00,896,Wunderground v.1.15,2013-07-21 10:40:00,
2013-07-21 12:50:00,88.9,60.0,29.96,East,88,5.0,5.0,38,0.00,,,0.00,895,Wunderground v.1.15,2013-07-21 10:50:00,
2013-07-21 13:05:00,89.4,55.7,29.96,ESE,109,5.0,5.0,32,0.00,,,0.00,923,Wunderground v.1.15,2013-07-21 11:05:00,
2013-07-21 13:15:00,89.8,55.1,29.96,ENE,58,5.0,5.0,31,0.00,,,0.00,930,Wunderground v.1.15,2013-07-21 11:15:00,
2013-07-21 13:21:00,90.2,55.5,29.97,ENE,63,4.0,5.0,31,0.00,,,0.00,932,Wunderground v.1.15,2013-07-21 11:21:00,
2013-07-21 13:30:00,90.4,54.7,29.97,East,91,3.0,4.0,30,0.00,,,0.00,935,Wunderground v.1.15,2013-07-21 11:30:00,
2013-07-21 13:40:00,91.3,60.6,29.97,SSE,155,3.0,3.0,36,0.00,,,0.00,933,Wunderground v.1.15,2013-07-21 11:40:00,
2013-07-21 13:55:00,91.7,61.7,29.97,ENE,65,4.0,4.0,37,0.00,,,0.00,954,Wunderground v.1.15,2013-07-21 11:55:00,
2013-07-21 14:05:00,91.5,60.0,29.97,ESE,115,3.0,4.0,35,0.00,,,0.00,953,Wunderground v.1.15,2013-07-21 12:05:00,
2013-07-21 14:20:00,91.8,59.4,29.96,NE,48,2.0,2.0,34,0.00,,,0.00,909,Wunderground v.1.15,2013-07-21 12:20:00,
2013-07-21 14:30:00,92.3,60.7,29.96,NE,38,3.0,3.0,35,0.00,,,0.00,954,Wunderground v.1.15,2013-07-21 12:30:00,
2013-07-21 14:41:00,92.2,59.8,29.95,ENE,63,4.0,4.0,34,0.00,,,0.00,777,Wunderground v.1.15,2013-07-21 12:41:00,
2013-07-21 14:55:00,92.1,60.5,29.95,ENE,77,4.0,4.0,35,0.00,,,0.00,919,Wunderground v.1.15,2013-07-21 12:55:00,
2013-07-21 15:05:00,92.9,59.6,29.95,SE,125,2.0,4.0,33,0.00,,,0.00,911,Wunderground v.1.15,2013-07-21 13:05:00,
2013-07-21 15:20:00,93.2,59.8,29.95,ESE,106,4.0,7.0,33,0.00,,,0.00,882,Wunderground v.1.15,2013-07-21 13:20:00,
2013-07-21 15:31:00,93.1,58.9,29.95,ESE,109,6.0,6.0,32,0.00,,,0.00,803,Wunderground v.1.15,2013-07-21 13:31:00,
2013-07-21 15:41:00,92.8,60.3,29.95,East,88,5.0,5.0,34,0.00,,,0.00,886,Wunderground v.1.15,2013-07-21 13:41:00,
2013-07-21 15:55:00,92.6,61.7,29.96,East,94,3.0,3.0,36,0.00,,,0.00,323,Wunderground v.1.15,2013-07-21 13:55:00,
2013-07-21 16:06:00,91.5,63.1,29.95,ENE,57,3.0,4.0,39,0.00,,,0.00,264,Wunderground v.1.15,2013-07-21 14:06:00,
2013-07-21 16:20:00,90.0,64.5,29.95,SE,132,4.0,4.0,43,0.00,,,0.00,288,Wunderground v.1.15,2013-07-21 14:20:00,
2013-07-21 16:35:00,90.2,69.6,29.94,South,188,3.0,3.0,51,0.00,,,0.00,756,Wunderground v.1.15,2013-07-21 14:35:00,
2013-07-21 16:45:00,90.7,68.3,29.94,SSW,196,2.0,2.0,48,0.00,,,0.00,731,Wunderground v.1.15,2013-07-21 14:45:00,
2013-07-21 17:05:00,90.0,65.2,29.94,East,99,5.0,5.0,44,0.00,,,0.00,703,Wunderground v.1.15,2013-07-21 15:05:00,
2013-07-21 17:15:00,89.7,65.5,29.94,ESE,122,5.0,5.0,45,0.00,,,0.00,209,Wunderground v.1.15,2013-07-21 15:15:00,
2013-07-21 17:25:00,89.1,65.0,29.93,NE,52,3.0,5.0,45,0.00,,,0.00,701,Wunderground v.1.15,2013-07-21 15:25:00,
2013-07-21 17:35:00,88.9,64.8,29.93,ESE,111,4.0,5.0,45,0.00,,,0.00,691,Wunderground v.1.15,2013-07-21 15:35:00,
2013-07-21 17:40:00,89.0,65.5,29.93,ENE,70,4.0,5.0,46,0.00,,,0.00,661,Wunderground v.1.15,2013-07-21 15:40:00,
2013-07-21 17:55:00,89.1,65.6,29.93,ENE,65,4.0,4.0,46,0.00,,,0.00,536,Wunderground v.1.15,2013-07-21 15:55:00,
2013-07-21 18:06:00,88.7,65.9,29.93,East,90,4.0,7.0,47,0.00,,,0.00,492,Wunderground v.1.15,2013-07-21 16:06:00,
2013-07-21 18:20:00,87.9,66.4,29.93,East,90,4.0,4.0,49,0.00,,,0.00,439,Wunderground v.1.15,2013-07-21 16:20:00,
2013-07-21 18:35:00,87.6,66.1,29.92,ENE,76,3.0,7.0,49,0.00,,,0.00,394,Wunderground v.1.15,2013-07-21 16:35:00,
2013-07-21 18:50:00,87.4,65.3,29.92,East,80,2.0,2.0,48,0.00,,,0.00,352,Wunderground v.1.15,2013-07-21 16:50:00,
2013-07-21 19:10:00,87.1,64.4,29.92,East,98,3.0,3.0,47,0.00,,,0.00,288,Wunderground v.1.15,2013-07-21 17:10:00,
2013-07-21 19:25:00,86.6,64.0,29.92,NE,40,3.0,3.0,47,0.00,,,0.00,239,Wunderground v.1.15,2013-07-21 17:25:00,
2013-07-21 19:40:00,85.8,63.2,29.92,ESE,119,4.0,4.0,47,0.00,,,0.00,195,Wunderground v.1.15,2013-07-21 17:40:00,
2013-07-21 20:06:00,84.9,62.4,29.92,ENE,63,3.0,4.0,47,0.00,,,0.00,121,Wunderground v.1.15,2013-07-21 18:06:00,
2013-07-21 20:16:00,84.6,62.1,29.92,NE,42,2.0,2.0,47,0.00,,,0.00,97,Wunderground v.1.15,2013-07-21 18:16:00,
2013-07-21 20:30:00,84.0,61.6,29.92,NNE,26,2.0,2.0,47,0.00,,,0.00,49,Wunderground v.1.15,2013-07-21 18:30:00,
2013-07-21 20:45:00,83.2,62.1,29.92,NE,42,2.0,2.0,49,0.00,,,0.00,44,Wunderground v.1.15,2013-07-21 18:45:00,
2013-07-21 21:05:00,82.4,61.9,29.93,ENE,57,2.0,2.0,50,0.00,,,0.00,0,Wunderground v.1.15,2013-07-21 19:05:00,
2013-07-21 21:15:00,82.1,62.2,29.94,NNE,26,1.0,1.0,51,0.00,,,0.00,0,Wunderground v.1.15,2013-07-21 19:15:00,
2013-07-21 21:25:00,81.9,62.5,29.93,NNE,26,1.0,2.0,52,0.00,,,0.00,0,Wunderground v.1.15,2013-07-21 19:25:00,
2013-07-21 21:35:00,81.8,63.0,29.94,East,80,1.0,2.0,53,0.00,,,0.00,0,Wunderground v.1.15,2013-07-21 19:35:00,
2013-07-21 21:45:00,81.6,63.9,29.94,ENE,71,2.0,2.0,55,0.00,,,0.00,0,Wunderground v.1.15,2013-07-21 19:45:00,
2013-07-21 21:55:00,81.2,64.0,29.95,ESE,107,2.0,2.0,56,0.00,,,0.00,0,Wunderground v.1.15,2013-07-21 19:55:00,
2013-07-21 22:05:00,80.9,63.7,29.97,North,360,1.0,1.0,56,0.00,,,0.00,0,Wunderground v.1.15,2013-07-21 20:05:00,
2013-07-21 22:15:00,80.6,64.0,29.98,ENE,60,1.0,2.0,57,0.00,,,0.00,0,Wunderground v.1.15,2013-07-21 20:15:00,
2013-07-21 22:30:00,80.3,65.1,29.97,North,360,2.0,2.0,60,0.00,,,0.00,0,Wunderground v.1.15,2013-07-21 20:30:00,
2013-07-21 22:45:00,79.6,65.9,29.99,North,9,1.0,2.0,63,0.00,,,0.01,0,Wunderground v.1.15,2013-07-21 20:45:00,
2013-07-21 22:55:00,78.9,67.0,30.00,WNW,291,1.0,3.0,67,0.00,,,0.01,0,Wunderground v.1.15,2013-07-21 20:55:00,
2013-07-21 23:10:00,77.3,66.7,29.99,WNW,290,1.0,1.0,70,0.00,,,0.01,0,Wunderground v.1.15,2013-07-21 21:10:00,
2013-07-21 23:20:00,76.9,67.2,29.99,WNW,290,1.0,1.0,72,0.00,,,0.01,0,Wunderground v.1.15,2013-07-21 21:20:00,
2013-07-21 23:36:00,76.2,67.7,30.00,WNW,289,2.0,2.0,75,0.00,,,0.01,0,Wunderground v.1.15,2013-07-21 21:36:00,
2013-07-21 23:45:00,75.6,67.5,30.00,WNW,290,1.0,1.0,76,0.00,,,0.02,0,Wunderground v.1.15,2013-07-21 21:45:00,
2013-07-21 23:51:00,75.6,67.5,30.00,WNW,290,1.0,1.0,76,0.00,,,0.02,0,Wunderground v.1.15,2013-07-21 21:51:00,